PBO Station Position Time Series. Reference Frame : NAM14
Format Version,1.1.1
4-character ID,LONG
Station name,LongdenYardSCIGN
Begin Date, 1996-01-01
End Date, 2023-06-26
Release Date, 2023-06-27
Reference position, 34.1118993720 North Latitude, -118.0034101871 East Longitude, 74.27208 meters elevation,
Date, North (mm), East (mm), Vertical (mm), North Std. Deviation (mm), East Std. Deviation (mm),              Vertical Std. Deviation (mm), Quality,
1996-01-01,0.00, 0.00, -11.45, 4.20, 4.53, 21.14, repro,
1996-01-02,-3.44, -5.88, 0.00, 3.81, 4.14, 19.21, repro,
1996-01-03,0.11, -4.27, 17.29, 3.69, 3.86, 18.24, repro,
1996-01-04,-0.83, -0.82, -3.40, 3.39, 3.59, 16.03, repro,
1996-01-05,0.41, -1.23, 14.28, 3.63, 3.96, 18.51, repro,
1996-01-06,1.94, -0.20, 6.85, 3.66, 3.77, 17.73, repro,
1996-01-07,2.65, -2.52, -5.73, 3.84, 4.09, 17.30, repro,
1996-01-08,2.02, 2.57, 4.17, 3.62, 3.59, 17.05, repro,
1996-01-09,1.71, -1.34, -6.29, 3.60, 3.52, 16.62, repro,
1996-01-10,3.42, -0.67, 7.80, 3.35, 3.35, 15.02, repro,
1996-01-11,3.04, -3.16, -14.11, 3.41, 3.43, 15.50, repro,
1996-01-12,2.99, -2.84, -9.79, 3.43, 3.39, 15.16, repro,
1996-01-13,0.38, -0.26, -6.07, 3.46, 3.35, 15.57, repro,
1996-01-14,-2.41, -0.55, 2.92, 3.61, 3.60, 16.62, repro,
1996-01-15,2.21, 0.05, 6.08, 3.58, 3.52, 16.38, repro,
1996-01-16,0.27, -0.54, 6.46, 3.68, 3.53, 16.39, repro,
1996-01-17,0.58, 0.03, 20.59, 3.65, 3.66, 16.75, repro,
1996-01-18,5.18, -3.47, -10.77, 3.51, 3.48, 16.27, repro,
1996-01-19,2.40, 2.57, -3.17, 3.59, 3.71, 16.76, repro,
1996-01-20,3.20, -0.04, -10.16, 3.25, 3.24, 14.48, repro,
1996-01-21,1.42, -0.54, 20.52, 3.49, 3.63, 16.28, repro,
1996-01-22,-0.24, 0.87, 3.92, 3.49, 3.47, 15.79, repro,
1996-01-23,2.47, 0.57, -7.42, 3.43, 3.55, 14.85, repro,
1996-01-24,-2.12, 0.66, -2.48, 3.59, 3.68, 16.24, repro,
1996-01-25,-0.83, -2.32, -4.58, 3.57, 3.60, 16.14, repro,
1996-01-26,-0.47, -6.21, -3.78, 3.62, 3.95, 17.83, repro,
1996-01-27,-0.55, 1.22, -15.40, 3.49, 3.63, 16.35, repro,
1996-01-28,-0.41, -1.68, -24.23, 3.68, 3.86, 17.35, repro,
1996-01-29,2.60, -3.02, -15.64, 3.12, 3.22, 14.64, repro,
1996-01-30,0.94, -1.65, 0.56, 3.96, 4.37, 18.86, repro,
1996-01-31,-3.23, 1.37, -10.16, 3.29, 3.55, 15.03, repro,
1996-02-01,3.96, -4.01, -18.01, 2.82, 2.81, 12.27, repro,
1996-02-02,0.88, 1.16, -2.02, 2.87, 2.79, 12.65, repro,
1996-02-03,2.00, -2.02, -13.84, 3.05, 3.06, 13.13, repro,
1996-02-04,-1.79, 0.64, -20.68, 2.83, 2.80, 12.51, repro,
1996-02-05,0.54, -1.07, -8.87, 2.83, 2.70, 12.58, repro,
1996-02-06,1.62, -0.97, -2.87, 2.90, 2.88, 13.12, repro,
1996-02-07,-1.19, -1.03, 2.43, 2.82, 2.85, 12.73, repro,
1996-02-08,0.93, -3.26, -0.15, 2.72, 2.69, 12.44, repro,
1996-02-09,0.88, -2.65, -19.92, 3.51, 3.81, 16.52, repro,
1996-02-10,0.42, -1.57, -13.09, 2.82, 2.74, 12.30, repro,
1996-02-11,31.58, 16.45, -167.11, 45.87, 25.71, 206.28, repro,
1996-02-12,218.43, -149.90, -556.72, 101.14, 100.30, 318.17, repro,
1996-02-13,-8.14, 3.90, -32.44, 13.20, 7.80, 65.48, repro,
1996-02-14,-1.30, -0.87, -11.16, 2.82, 2.86, 12.84, repro,
1996-02-15,2.99, -2.59, -15.38, 3.12, 3.26, 14.30, repro,
1996-02-16,-1.62, -0.81, -14.40, 2.95, 3.10, 13.53, repro,
1996-02-17,1.45, -2.88, -9.80, 2.84, 2.98, 13.25, repro,
1996-02-18,3.51, -3.10, -14.07, 3.25, 3.33, 14.64, repro,
1996-02-19,-1.07, 2.61, 11.40, 3.32, 3.13, 14.53, repro,
1996-02-20,0.20, -5.29, 12.87, 4.20, 4.73, 21.58, repro,
1996-02-21,-4.91, -2.13, -18.83, 3.62, 4.17, 19.23, repro,
1996-02-22,-0.37, 0.98, -0.11, 3.21, 3.33, 15.48, repro,
1996-02-23,-0.65, 0.26, -12.06, 3.18, 3.24, 14.50, repro,
1996-02-24,-1.96, -0.21, -8.66, 3.10, 3.31, 15.12, repro,
1996-02-25,-0.35, -0.99, -2.37, 3.04, 3.34, 14.80, repro,
1996-02-26,-0.48, -0.66, -6.32, 2.95, 3.02, 13.64, repro,
1996-02-27,-2.56, 0.25, 1.07, 3.03, 3.08, 14.18, repro,
1996-02-28,-1.28, 1.30, -0.18, 3.01, 3.15, 13.96, repro,
1996-02-29,-0.90, 1.55, 9.62, 2.98, 3.13, 14.56, repro,
1996-03-01,-0.70, -0.61, -10.56, 2.93, 3.15, 14.35, repro,
1996-03-02,-0.61, -0.30, -7.54, 3.24, 3.18, 14.52, repro,
1996-03-03,-0.51, -1.37, 6.02, 3.20, 3.01, 14.81, repro,
1996-03-04,0.09, -2.41, 0.21, 2.89, 2.89, 12.80, repro,
1996-03-05,1.07, 4.04, 5.58, 2.89, 2.95, 13.27, repro,
1996-03-06,-2.52, 0.07, -0.08, 2.94, 2.93, 13.47, repro,
1996-03-07,1.77, -3.81, -9.98, 2.91, 2.85, 13.35, repro,
1996-03-08,-1.12, -2.55, -6.73, 3.16, 3.03, 14.94, repro,
1996-03-09,6.49, -3.42, 15.26, 7.61, 6.12, 33.58, repro,
1996-03-10,-3.15, -8.94, 40.00, 11.31, 8.42, 49.45, repro,
1996-03-11,-0.72, -3.05, -20.63, 2.80, 2.80, 12.67, repro,
1996-03-12,-2.01, -2.56, -11.27, 3.03, 2.82, 13.80, repro,
1996-03-13,-1.51, 0.64, -3.17, 2.89, 2.90, 13.37, repro,
1996-03-14,1.60, -4.35, -13.61, 2.91, 3.07, 13.53, repro,
1996-03-15,0.53, -2.58, 1.56, 4.22, 4.45, 20.91, repro,
1996-03-16,-2.78, 1.75, 13.02, 3.70, 4.08, 19.00, repro,
1996-03-17,4.59, -1.41, -18.08, 3.32, 3.51, 15.63, repro,
1996-03-18,-1.30, -3.72, -4.80, 4.25, 4.18, 20.25, repro,
1996-03-19,1.34, -0.93, -6.58, 3.36, 3.78, 16.70, repro,
1996-03-20,-1.45, -3.14, 2.56, 3.76, 4.13, 18.69, repro,
1996-03-21,4.18, -2.38, -15.60, 3.39, 3.52, 16.29, repro,
1996-03-22,-5.65, -0.18, 7.62, 4.82, 5.15, 23.80, repro,
1996-03-23,-7.83, -4.15, 26.63, 4.47, 4.95, 22.75, repro,
1996-03-24,0.23, -4.09, -16.77, 3.99, 3.81, 17.97, repro,
1996-03-25,-1.42, 0.23, 1.60, 4.24, 4.13, 20.25, repro,
1996-03-26,-2.85, -0.80, 18.38, 4.98, 4.73, 24.25, repro,
1996-03-27,1.89, -0.56, -2.08, 2.91, 2.91, 13.02, repro,
1996-03-28,0.72, -4.71, -13.45, 2.77, 2.70, 12.92, repro,
1996-03-29,-0.73, -1.80, -9.78, 2.87, 2.72, 12.99, repro,
1996-03-30,2.18, -1.97, -12.12, 2.71, 2.69, 12.03, repro,
1996-03-31,0.41, -1.14, -13.25, 2.77, 2.83, 12.22, repro,
1996-04-01,2.28, 1.75, 3.41, 2.71, 2.77, 12.63, repro,
1996-04-02,1.34, -0.79, 0.26, 2.77, 2.83, 12.26, repro,
1996-04-03,2.50, -3.56, -11.39, 2.67, 2.66, 11.55, repro,
1996-04-04,1.33, 1.57, 3.61, 2.84, 3.01, 12.95, repro,
1996-04-05,1.18, -1.86, 4.32, 2.96, 2.96, 14.10, repro,
1996-04-06,3.04, -0.22, -7.51, 2.81, 2.84, 13.55, repro,
1996-04-07,2.19, -2.34, -5.48, 2.64, 2.79, 12.12, repro,
1996-04-08,1.01, -1.19, -5.30, 2.70, 2.79, 12.39, repro,
1996-04-09,2.10, -0.92, -3.82, 2.72, 2.78, 12.22, repro,
1996-04-10,3.51, -0.63, 0.11, 2.75, 2.81, 12.49, repro,
1996-04-11,0.15, -3.26, -14.46, 2.73, 2.72, 12.14, repro,
1996-04-12,1.90, -1.20, -2.54, 2.91, 2.97, 13.47, repro,
1996-04-13,2.90, -0.60, -10.83, 2.78, 2.99, 13.58, repro,
1996-04-14,1.72, -3.93, 4.36, 2.88, 2.98, 13.40, repro,
1996-04-15,1.63, -2.74, -3.69, 2.81, 2.97, 13.23, repro,
1996-04-16,0.38, -1.41, -6.38, 2.90, 3.14, 13.82, repro,
1996-04-17,0.51, 0.07, -1.20, 2.75, 2.88, 13.17, repro,
1996-04-18,1.90, -0.70, 12.57, 2.94, 3.00, 13.64, repro,
1996-04-19,0.45, -4.91, -2.77, 2.81, 2.87, 12.41, repro,
1996-04-20,3.86, -7.59, -4.26, 2.84, 2.97, 12.83, repro,
1996-04-21,-0.20, -0.90, -5.87, 2.99, 3.01, 13.66, repro,
1996-04-22,3.58, -5.06, -12.49, 2.87, 3.01, 13.40, repro,
1996-04-23,2.25, -4.70, -13.23, 2.73, 2.85, 12.76, repro,
1996-04-24,0.16, -3.89, -4.59, 2.77, 2.85, 13.11, repro,
1996-04-25,1.23, -1.64, -4.33, 3.17, 3.21, 14.90, repro,
1996-04-26,0.73, -3.19, -1.41, 2.88, 2.99, 13.95, repro,
1996-04-27,-1.13, -2.38, 13.14, 2.72, 2.83, 12.37, repro,
1996-04-28,0.67, -3.88, 4.43, 2.87, 2.90, 13.24, repro,
1996-04-29,2.09, -5.00, -10.68, 2.92, 3.13, 13.56, repro,
1996-04-30,-1.85, -3.70, -1.12, 2.96, 3.14, 13.93, repro,
1996-05-01,-3.98, -1.91, -7.13, 3.02, 3.11, 13.60, repro,
1996-05-02,-0.93, -2.82, 5.47, 2.80, 2.91, 13.23, repro,
1996-05-03,-0.30, -3.64, 4.66, 2.80, 2.98, 13.70, repro,
1996-05-04,-1.44, -3.01, -5.13, 2.77, 2.86, 12.57, repro,
1996-05-05,-0.74, -4.40, -15.57, 2.76, 2.84, 12.54, repro,
1996-05-06,-1.38, -2.96, -3.47, 2.78, 2.89, 13.03, repro,
1996-05-07,-0.63, -0.85, -2.44, 2.88, 3.23, 14.25, repro,
1996-05-08,-0.90, -2.23, -6.69, 2.85, 3.25, 14.55, repro,
1996-05-09,0.76, -5.04, -9.68, 2.85, 2.91, 13.08, repro,
1996-05-10,-0.30, -2.83, -3.99, 2.82, 2.92, 13.21, repro,
1996-05-11,0.60, -2.88, 4.97, 3.13, 3.48, 14.62, repro,
1996-05-12,0.34, -5.05, -6.36, 3.02, 3.24, 14.49, repro,
1996-05-13,-1.10, -4.20, -12.41, 2.85, 3.00, 13.17, repro,
1996-05-14,-0.95, -3.19, -8.23, 2.78, 2.71, 12.64, repro,
1996-05-15,0.59, -5.04, 1.20, 2.75, 2.73, 12.54, repro,
1996-05-16,-1.61, -2.73, -4.60, 2.88, 2.95, 13.10, repro,
1996-05-17,-1.30, -6.39, 1.66, 2.85, 2.93, 12.76, repro,
1996-05-18,1.84, -3.85, -11.59, 2.90, 2.98, 13.08, repro,
1996-05-19,0.15, -3.65, -7.30, 2.77, 2.74, 12.66, repro,
1996-05-20,0.07, -5.50, -7.40, 2.71, 2.83, 12.41, repro,
1996-05-21,0.77, -3.83, -10.83, 2.91, 3.02, 13.10, repro,
1996-05-22,0.50, -6.08, -17.91, 2.90, 2.80, 13.21, repro,
1996-05-23,1.10, -9.73, -17.15, 2.93, 2.79, 12.93, repro,
1996-05-24,-0.60, -8.80, -24.61, 2.94, 3.00, 13.19, repro,
1996-05-25,-0.13, -6.60, -16.12, 2.88, 2.83, 12.72, repro,
1996-05-26,-1.16, -6.01, -4.87, 2.78, 2.75, 12.43, repro,
1996-05-27,-1.36, -9.09, -14.54, 2.72, 2.67, 12.27, repro,
1996-05-28,-1.82, -8.63, -17.09, 2.69, 2.69, 11.62, repro,
1996-05-29,-1.20, -4.38, -5.35, 2.85, 2.99, 13.06, repro,
1996-05-30,-0.31, -7.93, -6.73, 2.71, 2.70, 12.01, repro,
1996-05-31,-1.13, -4.77, -10.06, 2.67, 2.69, 12.07, repro,
1996-06-01,-1.35, -7.13, -9.33, 2.77, 2.69, 12.25, repro,
1996-06-02,-0.75, -7.91, -33.32, 2.73, 2.65, 11.96, repro,
1996-06-03,-2.89, -8.59, -19.88, 2.94, 2.73, 13.10, repro,
1996-06-04,-1.68, -5.55, -13.18, 2.80, 2.75, 12.64, repro,
1996-06-05,-0.26, -9.10, -12.21, 2.92, 2.96, 13.25, repro,
1996-06-06,0.22, -7.20, -23.35, 2.84, 2.80, 12.82, repro,
1996-06-07,-1.34, -11.53, -6.89, 3.22, 2.88, 14.13, repro,
1996-06-08,-0.15, -6.20, -12.23, 2.87, 2.75, 12.95, repro,
1996-06-09,-1.76, -5.82, -6.81, 2.92, 2.75, 13.11, repro,
1996-06-10,-2.12, -6.22, -7.86, 2.88, 2.83, 13.21, repro,
1996-06-11,-1.99, -4.53, -6.39, 2.94, 2.94, 13.50, repro,
1996-06-12,1.97, -9.31, -19.38, 2.77, 2.69, 12.49, repro,
1996-06-13,-1.40, -7.20, -6.47, 2.86, 2.75, 12.68, repro,
1996-06-14,-1.40, -8.67, -21.07, 2.88, 2.76, 13.53, repro,
1996-06-15,-1.88, -5.54, -5.62, 2.81, 2.72, 12.27, repro,
1996-06-16,-0.70, -6.94, -18.82, 2.85, 2.73, 12.70, repro,
1996-06-17,-2.92, -6.41, -18.53, 3.00, 2.95, 13.50, repro,
1996-06-18,-1.55, -6.51, -7.84, 2.83, 2.85, 13.11, repro,
1996-06-19,-0.96, -8.22, -4.11, 2.89, 2.74, 13.00, repro,
1996-06-20,-3.07, -6.11, -11.45, 2.84, 2.81, 13.27, repro,
1996-06-21,-2.07, -6.89, 1.93, 2.91, 2.77, 12.80, repro,
1996-06-22,0.08, -6.90, -5.07, 2.96, 2.84, 13.08, repro,
1996-06-23,-2.37, -8.30, -5.99, 2.95, 2.81, 13.13, repro,
1996-06-24,-2.61, -6.42, -7.91, 2.85, 2.74, 12.86, repro,
1996-06-25,-0.49, -7.31, -10.39, 2.86, 2.70, 12.60, repro,
1996-06-26,-1.14, -6.25, -13.21, 2.78, 2.66, 12.08, repro,
1996-06-27,-0.06, -6.62, -10.92, 2.83, 2.75, 12.61, repro,
1996-06-28,0.38, -8.33, -18.54, 2.81, 2.74, 12.62, repro,
1996-06-29,-1.83, -5.90, -11.02, 2.91, 2.76, 13.13, repro,
1996-06-30,-0.74, -5.94, -14.49, 3.36, 3.23, 14.69, repro,
1996-07-01,-2.49, -8.31, -18.20, 2.97, 2.98, 14.26, repro,
1996-07-02,-0.05, -9.18, -5.27, 3.01, 2.87, 12.90, repro,
1996-07-03,-0.95, -7.86, -10.04, 2.97, 2.90, 13.50, repro,
1996-07-04,2.56, -8.15, -18.61, 3.02, 3.00, 13.62, repro,
1996-07-05,-1.79, -7.16, -17.55, 2.86, 2.85, 13.05, repro,
1996-07-06,0.91, -7.36, -13.31, 2.88, 2.84, 13.32, repro,
1996-07-07,0.18, -7.62, -7.51, 2.85, 2.79, 12.99, repro,
1996-07-08,0.73, -8.86, -8.55, 2.79, 2.77, 12.75, repro,
1996-07-09,0.65, -8.72, -8.80, 2.73, 3.01, 13.08, repro,
1996-07-10,-1.93, -7.43, -15.13, 3.01, 2.99, 13.49, repro,
1996-07-11,-3.53, -8.00, -15.83, 2.81, 2.78, 12.90, repro,
1996-07-12,-0.21, -7.04, -18.83, 2.79, 2.73, 12.67, repro,
1996-07-13,4.52, -4.23, -1.87, 2.91, 2.79, 12.64, repro,
1996-07-14,6.52, -3.17, -7.24, 2.73, 2.67, 12.13, repro,
1996-07-15,6.16, -2.78, -10.91, 2.76, 2.73, 12.51, repro,
1996-07-16,5.74, -3.79, -12.63, 2.79, 2.64, 12.21, repro,
1996-07-17,2.16, -0.38, 3.49, 2.81, 2.76, 12.87, repro,
1996-07-18,4.72, -0.71, -6.88, 2.74, 2.68, 12.76, repro,
1996-07-19,6.98, -2.59, -11.38, 2.72, 2.71, 12.12, repro,
1996-07-20,5.54, -4.26, -3.60, 2.70, 2.79, 12.68, repro,
1996-07-21,4.03, -3.01, -3.23, 2.72, 2.64, 12.52, repro,
1996-07-22,7.24, -1.25, -14.16, 2.74, 2.67, 12.29, repro,
1996-07-23,2.41, -4.80, -9.75, 2.70, 2.68, 12.37, repro,
1996-07-24,3.58, -2.83, -5.96, 2.84, 2.78, 12.70, repro,
1996-07-25,3.49, -2.78, 8.67, 2.64, 2.71, 12.24, repro,
1996-07-26,4.52, -6.06, 1.03, 2.80, 2.85, 13.32, repro,
1996-07-27,6.18, -3.58, 16.05, 2.73, 2.84, 12.95, repro,
1996-07-28,3.99, -3.93, 20.92, 2.79, 2.81, 13.08, repro,
1996-07-29,5.46, -5.19, 0.52, 2.76, 2.79, 12.89, repro,
1996-07-30,2.27, -11.59, 10.16, 2.72, 2.82, 12.64, repro,
1996-07-31,0.40, -9.57, 1.67, 2.65, 2.78, 12.19, repro,
1996-08-01,-0.08, -11.91, 1.79, 2.71, 2.78, 12.82, repro,
1996-08-02,-2.63, -8.26, 12.44, 2.83, 2.71, 13.26, repro,
1996-08-03,1.69, -11.72, -6.07, 2.75, 2.83, 12.77, repro,
1996-08-04,-1.24, -7.75, 7.26, 2.66, 2.74, 12.61, repro,
1996-08-05,-1.48, -8.05, 9.76, 2.84, 2.88, 13.93, repro,
1996-08-06,-1.93, -8.57, 1.89, 2.88, 2.91, 12.93, repro,
1996-08-07,-0.51, -8.27, 7.16, 2.66, 2.76, 11.98, repro,
1996-08-08,-0.20, -9.21, -3.60, 2.73, 2.85, 12.63, repro,
1996-08-09,-1.10, -10.76, -7.12, 2.66, 2.73, 11.85, repro,
1996-08-10,-0.63, -8.68, 7.09, 2.68, 2.71, 12.27, repro,
1996-08-11,1.07, -5.55, -1.48, 2.63, 2.83, 11.91, repro,
1996-08-12,-0.07, -8.32, 4.88, 2.79, 2.85, 12.85, repro,
1996-08-13,-2.65, -9.66, -12.65, 2.77, 2.79, 12.29, repro,
1996-08-14,0.88, -7.18, 4.89, 2.98, 2.88, 13.55, repro,
1996-08-15,0.86, -7.85, -0.95, 2.74, 2.80, 12.97, repro,
1996-08-16,0.85, -7.15, 4.17, 2.84, 2.88, 13.21, repro,
1996-08-17,2.05, -9.30, 6.99, 2.88, 3.17, 14.40, repro,
1996-08-18,1.01, -7.09, 3.11, 3.03, 3.07, 14.77, repro,
1996-08-19,0.47, -9.78, 5.62, 3.12, 3.05, 14.75, repro,
1996-08-20,-0.87, -5.94, -0.40, 3.01, 3.01, 14.02, repro,
1996-08-21,0.46, -5.24, 4.10, 2.98, 2.96, 13.90, repro,
1996-08-22,0.35, -9.76, -5.85, 2.62, 2.71, 12.03, repro,
1996-08-23,0.32, -7.22, -0.50, 2.74, 2.81, 12.71, repro,
1996-08-24,-1.46, -5.87, 9.07, 3.00, 2.83, 13.62, repro,
1996-08-25,0.71, -9.40, -3.27, 2.73, 2.85, 13.05, repro,
1996-08-26,-0.67, -12.16, -15.32, 2.99, 3.08, 14.45, repro,
1996-08-27,2.24, -9.67, -10.81, 2.93, 3.19, 14.62, repro,
1996-08-28,0.62, -9.73, -8.53, 2.76, 2.97, 13.09, repro,
1996-08-29,0.15, -6.52, 5.54, 3.21, 3.08, 14.85, repro,
1996-08-30,2.03, -6.30, 11.83, 2.81, 2.97, 12.77, repro,
1996-08-31,-0.58, -6.01, -1.75, 2.88, 2.87, 12.88, repro,
1996-09-01,-0.89, -7.56, -9.98, 2.89, 3.05, 13.50, repro,
1996-09-02,-0.61, -4.76, 9.72, 2.87, 3.07, 13.94, repro,
1996-09-03,0.22, -9.62, 0.33, 2.86, 2.91, 13.23, repro,
1996-09-04,1.65, -9.94, -1.56, 2.98, 3.04, 14.01, repro,
1996-09-06,3.99, -11.96, -3.17, 2.73, 2.86, 12.07, repro,
1996-09-07,3.15, -10.05, 1.08, 2.62, 2.72, 11.18, repro,
1996-09-08,2.90, -12.33, -1.07, 2.74, 2.74, 12.13, repro,
1996-09-09,0.96, -11.50, -10.32, 2.82, 2.91, 12.39, repro,
1996-09-10,4.28, -14.44, 2.12, 2.79, 3.01, 13.07, repro,
1996-09-11,2.40, -10.14, -8.52, 2.69, 2.82, 11.77, repro,
1996-09-12,2.04, -8.57, 8.41, 2.58, 2.73, 11.22, repro,
1996-09-13,2.59, -12.42, 6.00, 2.55, 2.74, 11.17, repro,
1996-09-14,0.90, -12.01, 0.26, 2.66, 2.87, 11.79, repro,
1996-09-15,2.87, -11.01, -1.93, 2.61, 2.57, 11.16, repro,
1996-09-16,3.04, -12.47, -8.04, 2.59, 2.80, 11.69, repro,
1996-09-17,2.55, -10.60, -6.59, 2.44, 2.39, 10.19, repro,
1996-09-18,1.97, -8.72, -4.28, 2.46, 2.54, 10.80, repro,
1996-09-19,1.97, -8.27, -2.40, 2.63, 2.62, 11.22, repro,
1996-09-21,2.62, -9.99, 8.37, 2.57, 2.55, 10.83, repro,
1996-09-22,2.30, -8.49, 8.69, 2.45, 2.37, 10.02, repro,
1996-09-23,4.15, -9.74, 9.20, 2.60, 2.56, 11.16, repro,
1996-09-24,0.10, -7.36, 14.59, 2.78, 2.62, 11.39, repro,
1996-09-25,4.83, -11.09, -1.27, 2.52, 2.50, 10.63, repro,
1996-09-26,2.98, -11.70, -0.34, 2.85, 3.10, 12.98, repro,
1996-09-27,4.50, -8.93, 12.58, 2.47, 2.48, 10.52, repro,
1996-09-28,2.99, -8.88, 6.71, 2.72, 2.74, 12.00, repro,
1996-09-29,1.29, -9.04, 12.00, 2.34, 2.28, 9.87, repro,
1996-09-30,3.73, -10.83, -0.14, 2.57, 2.55, 11.01, repro,
1996-10-01,4.20, -11.59, 8.46, 2.46, 2.38, 10.36, repro,
1996-10-02,4.73, -9.98, -0.72, 2.33, 2.24, 9.68, repro,
1996-10-03,3.50, -9.48, 0.33, 2.31, 2.33, 9.95, repro,
1996-10-04,2.04, -11.69, 0.44, 2.49, 2.56, 10.53, repro,
1996-10-05,0.96, -8.89, 15.63, 2.44, 2.39, 10.32, repro,
1996-10-06,2.08, -10.01, 3.87, 2.36, 2.33, 10.03, repro,
1996-10-07,3.13, -9.62, 3.41, 2.35, 2.29, 9.84, repro,
1996-10-08,2.14, -8.01, 7.94, 2.45, 2.40, 10.44, repro,
1996-10-09,3.68, -11.74, 4.11, 2.44, 2.40, 10.21, repro,
1996-10-10,0.82, -6.57, -0.15, 2.44, 2.63, 10.49, repro,
1996-10-11,2.55, -6.97, 12.47, 2.42, 2.56, 10.36, repro,
1996-10-12,1.48, -8.51, -1.55, 2.35, 2.38, 10.06, repro,
1996-10-13,2.28, -9.92, 12.30, 2.42, 2.47, 10.38, repro,
1996-10-14,1.60, -7.56, 8.60, 2.37, 2.40, 10.27, repro,
1996-10-15,1.57, -6.62, 11.58, 2.54, 2.69, 11.19, repro,
1996-10-16,2.54, -6.96, 3.83, 2.50, 2.62, 10.62, repro,
1996-10-17,1.81, -8.85, 1.01, 2.46, 2.55, 10.67, repro,
1996-10-18,1.73, -9.09, 6.00, 2.48, 2.54, 10.60, repro,
1996-10-19,2.65, -11.01, 7.18, 2.38, 2.46, 10.26, repro,
1996-10-20,3.03, -15.85, -4.34, 2.40, 2.51, 10.45, repro,
1996-10-21,3.65, -7.90, 3.59, 2.44, 2.64, 11.00, repro,
1996-10-22,1.80, -8.43, 0.62, 2.41, 2.57, 10.47, repro,
1996-10-23,0.85, -9.25, -0.43, 2.48, 2.53, 10.48, repro,
1996-10-24,2.18, -8.03, -4.26, 2.39, 2.45, 10.43, repro,
1996-10-25,0.64, -9.61, 21.01, 2.64, 2.86, 12.15, repro,
1996-10-26,3.97, -10.27, 2.23, 2.43, 2.50, 10.54, repro,
1996-10-27,3.64, -5.40, 5.11, 2.54, 2.68, 10.80, repro,
1996-10-28,1.16, -8.52, 9.10, 2.44, 2.65, 10.92, repro,
1996-10-29,-1.46, -6.84, -2.44, 2.50, 2.56, 10.85, repro,
1996-10-30,-0.12, -9.40, 14.18, 2.71, 3.04, 12.74, repro,
1996-10-31,1.54, -8.80, -3.77, 2.51, 2.50, 10.61, repro,
1996-11-01,3.33, -7.47, 4.36, 2.55, 2.57, 10.57, repro,
1996-11-02,2.60, -7.32, 9.54, 2.41, 2.61, 10.81, repro,
1996-11-03,1.11, -8.07, -5.13, 2.57, 2.51, 10.89, repro,
1996-11-04,1.92, -5.54, 10.98, 2.65, 2.57, 11.04, repro,
1996-11-05,-0.26, -11.55, 3.17, 2.49, 2.60, 10.84, repro,
1996-11-06,2.96, -8.29, 0.40, 2.58, 2.67, 11.13, repro,
1996-11-07,0.74, -6.19, 18.09, 2.58, 2.67, 11.33, repro,
1996-11-08,2.74, -7.65, 17.25, 2.95, 3.56, 15.88, repro,
1996-11-09,-0.09, -3.90, 22.08, 2.61, 2.72, 11.23, repro,
1996-11-10,-1.80, -2.97, 19.37, 2.57, 2.59, 11.08, repro,
1996-11-11,0.59, -4.08, 21.21, 2.64, 2.73, 11.54, repro,
1996-11-12,2.27, -6.76, -2.29, 2.51, 2.52, 10.60, repro,
1996-11-13,0.19, -3.83, 7.80, 2.43, 2.46, 10.46, repro,
1996-11-14,1.06, -6.94, 2.50, 2.46, 2.47, 10.56, repro,
1996-11-15,0.86, -4.93, 4.51, 2.53, 2.58, 11.10, repro,
1996-11-16,-0.09, -4.71, 26.61, 2.69, 2.78, 12.14, repro,
1996-11-17,0.87, -7.87, 12.95, 2.92, 2.68, 11.98, repro,
1996-11-18,1.02, -4.40, 18.17, 2.72, 2.59, 11.56, repro,
1996-11-19,-3.50, -8.88, 7.89, 2.58, 2.69, 11.44, repro,
1996-11-20,2.23, -6.95, -0.31, 2.50, 2.47, 10.64, repro,
1996-11-21,1.49, -0.12, 11.00, 2.52, 2.55, 10.75, repro,
1996-11-22,3.94, -9.02, -11.30, 2.67, 2.66, 11.46, repro,
1996-11-23,4.55, -5.11, 5.38, 2.49, 2.53, 10.53, repro,
1996-11-24,6.90, -7.42, 1.15, 2.60, 2.61, 11.06, repro,
1996-11-25,2.39, -6.28, 3.21, 2.61, 2.53, 11.05, repro,
1996-11-26,5.49, -9.44, -14.09, 2.61, 2.67, 11.31, repro,
1996-11-27,-7.12, -2.76, 19.58, 2.63, 2.56, 11.23, repro,
1996-11-28,2.42, -5.83, 5.47, 2.62, 2.66, 11.02, repro,
1996-11-29,0.86, -6.00, 2.90, 2.77, 2.73, 11.30, repro,
1996-11-30,0.30, -6.54, 12.73, 2.71, 2.51, 11.41, repro,
1996-12-01,11.32, -2.73, -25.50, 3.06, 3.21, 13.19, repro,
1996-12-02,0.95, -4.74, 4.98, 2.67, 2.62, 11.37, repro,
1996-12-03,1.65, -5.53, 0.29, 2.74, 2.73, 11.61, repro,
1996-12-04,-3.73, -3.18, 23.10, 2.62, 2.65, 11.27, repro,
1996-12-05,1.34, -5.55, 10.59, 2.69, 2.56, 11.36, repro,
1996-12-06,3.00, -7.36, 8.33, 3.09, 2.84, 13.18, repro,
1996-12-07,-0.39, -3.96, 15.39, 2.71, 2.60, 11.48, repro,
1996-12-08,-1.09, -5.26, 30.34, 2.67, 2.65, 11.16, repro,
1996-12-09,1.50, -6.77, 4.34, 2.81, 2.71, 12.11, repro,
1996-12-10,4.04, -10.00, -13.40, 2.86, 2.71, 11.51, repro,
1996-12-11,-0.35, -5.83, 13.82, 2.74, 2.72, 11.47, repro,
1996-12-12,2.05, -5.56, -0.84, 2.57, 2.54, 10.98, repro,
1996-12-13,1.24, -5.33, -2.56, 2.65, 2.55, 11.20, repro,
1996-12-14,1.41, -8.27, -2.97, 2.54, 2.50, 10.74, repro,
1996-12-15,2.32, -5.35, -8.88, 2.55, 2.52, 10.42, repro,
1996-12-16,2.26, -7.44, -0.93, 2.48, 2.43, 10.22, repro,
1996-12-17,0.44, -6.96, 0.77, 2.79, 2.56, 11.22, repro,
1996-12-18,0.81, -7.59, -3.73, 2.45, 2.41, 10.20, repro,
1996-12-19,1.81, -7.24, -8.10, 2.53, 2.53, 10.80, repro,
1996-12-20,0.44, -5.52, -8.75, 2.71, 2.77, 11.87, repro,
1996-12-21,2.15, -6.24, -7.64, 2.50, 2.46, 10.29, repro,
1996-12-22,3.28, -7.08, -7.72, 2.49, 2.50, 10.35, repro,
1996-12-23,2.01, -7.91, 0.44, 2.53, 2.46, 10.43, repro,
1996-12-24,0.04, -6.84, 6.00, 2.62, 2.47, 10.91, repro,
1996-12-25,3.15, -5.49, -1.37, 2.62, 2.55, 11.16, repro,
1996-12-26,0.44, -6.45, 1.03, 2.61, 2.49, 10.75, repro,
1996-12-27,5.26, -7.36, -6.14, 2.69, 2.57, 11.49, repro,
1996-12-28,0.69, -8.69, 8.73, 2.63, 2.49, 10.96, repro,
1996-12-29,0.27, -3.54, 11.18, 2.64, 2.61, 11.22, repro,
1996-12-30,2.57, -5.92, 7.90, 2.60, 2.62, 11.30, repro,
1996-12-31,-2.24, 1.25, 23.16, 7.46, 10.45, 36.05, repro,
1997-01-01,0.65, -6.87, 0.20, 2.49, 2.68, 10.89, repro,
1997-01-02,3.01, -6.63, -15.79, 2.64, 2.68, 11.12, repro,
1997-01-03,0.04, -5.66, -0.40, 2.51, 2.65, 10.78, repro,
1997-01-04,-1.88, -3.39, -18.59, 2.51, 2.55, 10.67, repro,
1997-01-05,-1.52, -4.38, -6.08, 2.74, 2.94, 11.67, repro,
1997-01-06,-5.63, -5.31, 3.47, 2.71, 2.73, 11.78, repro,
1997-01-07,-3.09, -2.63, 7.77, 2.92, 2.97, 12.03, repro,
1997-01-08,-0.09, -4.34, -15.21, 2.54, 2.58, 10.73, repro,
1997-01-09,-0.73, -3.61, 10.65, 2.66, 2.66, 11.54, repro,
1997-01-10,-2.66, -7.84, -5.92, 2.52, 2.61, 11.09, repro,
1997-01-11,-2.23, -5.60, -3.15, 2.46, 2.48, 10.65, repro,
1997-01-12,-0.18, -5.34, -4.68, 2.61, 2.63, 11.28, repro,
1997-01-13,-0.38, -5.76, 0.37, 2.48, 2.49, 10.74, repro,
1997-01-14,-0.98, -5.96, -13.43, 2.50, 2.59, 10.67, repro,
1997-01-15,-1.20, -2.47, -11.24, 2.54, 2.62, 10.96, repro,
1997-01-16,-0.80, -4.45, -19.07, 2.59, 2.76, 11.58, repro,
1997-01-17,-0.14, -4.24, -9.82, 2.85, 2.95, 12.18, repro,
1997-01-18,-1.16, -4.20, -11.13, 2.63, 2.66, 11.33, repro,
1997-01-19,-0.46, -5.53, 11.90, 2.54, 2.55, 10.85, repro,
1997-01-20,-0.74, -3.49, -23.03, 2.54, 2.54, 11.00, repro,
1997-01-21,-1.73, -5.32, -11.35, 2.58, 2.52, 11.12, repro,
1997-01-22,-2.93, -5.23, -0.67, 2.70, 2.62, 11.42, repro,
1997-01-23,-3.89, -6.88, -8.82, 2.55, 2.52, 10.97, repro,
1997-01-24,-1.00, -5.35, -17.85, 2.58, 2.61, 10.58, repro,
1997-01-25,-0.42, -2.55, -20.41, 2.52, 2.60, 10.96, repro,
1997-01-26,-0.27, -3.21, -19.34, 2.60, 2.59, 11.21, repro,
1997-01-27,-0.14, -6.07, -29.35, 2.82, 2.70, 12.30, repro,
1997-01-28,0.05, -3.88, -14.25, 2.56, 2.66, 11.38, repro,
1997-01-29,-0.33, -5.52, -18.21, 2.63, 2.64, 11.40, repro,
1997-01-30,-0.96, -5.53, -21.91, 2.49, 2.56, 11.19, repro,
1997-01-31,-0.89, -5.92, -19.53, 2.60, 2.64, 11.39, repro,
1997-02-01,0.25, -5.15, -15.56, 2.44, 2.44, 10.44, repro,
1997-02-02,-1.08, -9.09, -22.42, 3.18, 3.26, 13.68, repro,
1997-02-03,-0.93, -7.86, -20.47, 2.94, 2.79, 11.83, repro,
1997-02-04,0.19, -7.70, -22.57, 3.12, 2.83, 12.61, repro,
1997-02-06,-2.44, -7.65, -27.29, 2.95, 2.95, 12.48, repro,
1997-02-07,-1.85, -9.70, -41.64, 2.90, 2.76, 11.89, repro,
1997-02-08,-2.53, -5.32, -19.59, 2.82, 2.78, 11.81, repro,
1997-02-09,-1.39, -6.78, -19.71, 2.90, 2.86, 12.16, repro,
1997-02-10,-3.86, -10.72, -30.12, 3.14, 2.98, 13.15, repro,
1997-02-11,1.31, -6.54, -18.32, 2.90, 2.65, 11.88, repro,
1997-02-12,0.43, -7.21, -15.00, 2.73, 2.64, 11.27, repro,
1997-02-13,-2.64, -8.29, -27.80, 2.83, 2.79, 11.88, repro,
1997-02-14,1.36, -7.67, -27.09, 2.88, 2.90, 13.44, repro,
1997-02-15,-1.85, -7.56, -36.28, 3.08, 2.98, 14.00, repro,